McMinnville, OR

3:47 PM PST on November 21, 2017 (GMT -0800)
McMinnville Municipal

Weather History for KMMV - October, 2011

Change the Weather History Date:

Thursday, October 13, 2011

  Actual Average Record
Temperature  
Mean Temperature 53 °F 52 °F  
Max Temperature 57 °F 64 °F 80 °F (1939)
Min Temperature 48 °F 41 °F 27 °F (1970)
Degree Days  
Heating Degree Days 12 12  
Month to date heating degree days 104 134  
Since 1 July heating degree days 207 350  
Cooling Degree Days 0 0  
Month to date cooling degree days 0 0  
Year to date cooling degree days 251 214  
Growing Degree Days 4 (Base 50)    
Moisture  
Dew Point 47 °F    
Average Humidity 76    
Maximum Humidity 89    
Minimum Humidity 62    
Precipitation  
Precipitation 0.07 in 0.10 in 1.72 in (2016)
Month to date precipitation 1.75 1.00  
Year to date precipitation 25.52 24.71  
Snow  
Snow 0.00 in - - ()
Month to date snowfall 0.0  
Snow Depth 0.00 in    
Sea Level Pressure  
Sea Level Pressure 30.09 in    
Wind  
Wind Speed 5 mph (NNW)    
Max Wind Speed 13 mph    
Max Gust Speed 16 mph    
Visibility 10 miles    
Events Rain    
T = Trace of Precipitation, MM = Missing Value Source: NWS Daily Summary

Daily Weather History Graph

Daily Weather History Graph

Search for Another Location

Airport or City:

Trip Planner

Search our weather history database for the weather conditions in past years. The results will help you decide how hot, cold, wet, or windy it might be!

Date:

Astronomy

Oct. 13, 2011 Rise Set
Actual Time 7:25 AM PDT 6:31 PM PDT
Civil Twilight 6:56 AM PDT 7:00 PM PDT
Nautical Twilight 6:21 AM PDT 7:34 PM PDT
Astronomical Twilight 5:47 AM PDT 8:08 PM PDT
Moon 7:01 PM PDT (10/13) 9:10 AM PDT (10/13)
Length of Visible Light 12h 04m
Length of Day
11h 05m
Full, 97% of the Moon is Illuminated
Oct 13
Full
Oct 19
Last Quarter
Oct 26
New
Nov 2
First Quarter
Nov 10
Full

Hourly Weather History & Observations

Time (PDT) Temp. Dew Point Humidity Pressure Visibility Wind Dir Wind Speed Gust Speed Precip Events Conditions
12:53 AM 53.1 °F 48.0 °F 83% 30.22 in 10.0 mi NNW 4.6 mph - N/A   Clear
1:53 AM 53.1 °F 46.9 °F 80% 30.23 in 10.0 mi North 3.5 mph - N/A   Clear
2:53 AM 53.1 °F 46.9 °F 80% 30.21 in 10.0 mi NNW 5.8 mph - N/A   Clear
4:53 AM 52.0 °F 46.9 °F 83% 30.18 in 10.0 mi North 3.5 mph - N/A   Partly Cloudy
5:53 AM 52.0 °F 46.9 °F 83% 30.17 in 10.0 mi Calm Calm - N/A   Overcast
8:53 AM 53.1 °F 46.0 °F 77% 30.17 in 10.0 mi North 3.5 mph - N/A   Overcast
9:53 AM 55.0 °F 46.0 °F 72% 30.15 in 10.0 mi North 4.6 mph - N/A   Overcast
10:53 AM 55.9 °F 46.0 °F 69% 30.14 in 10.0 mi North 8.1 mph - N/A   Overcast
11:53 AM 57.0 °F 45.0 °F 64% 30.12 in 10.0 mi North 9.2 mph - N/A   Clear
12:53 PM 57.0 °F 45.0 °F 64% 30.10 in 10.0 mi North 8.1 mph - N/A   Partly Cloudy
1:53 PM 55.0 °F 45.0 °F 69% 30.09 in 10.0 mi NNW 8.1 mph - 0.00 in Rain Light Rain
2:06 PM 53.6 °F 46.4 °F 77% 30.10 in 7.0 mi NNW 8.1 mph - 0.01 in Rain Light Rain
2:42 PM 55.4 °F 48.2 °F 77% 30.08 in 10.0 mi North 4.6 mph - 0.03 in Rain Light Rain
3:53 PM 55.9 °F 48.9 °F 77% 30.07 in 10.0 mi North 5.8 mph - 0.00 in   Overcast
4:53 PM 55.0 °F 50.0 °F 83% 30.06 in 7.0 mi NW 5.8 mph - 0.03 in Rain Light Rain
5:17 PM 53.6 °F 48.2 °F 82% 30.05 in 9.0 mi NNW 5.8 mph - 0.01 in Rain Light Rain
5:41 PM 53.6 °F 50.0 °F 88% 30.04 in 10.0 mi NNW 5.8 mph - 0.01 in   Mostly Cloudy
5:53 PM 54.0 °F 50.0 °F 86% 30.04 in 10.0 mi North 6.9 mph - 0.01 in   Mostly Cloudy
6:53 PM 53.1 °F 50.0 °F 89% 30.01 in 10.0 mi NNW 6.9 mph - N/A   Overcast
7:53 PM 52.0 °F 48.0 °F 86% 30.01 in 10.0 mi NNW 6.9 mph - N/A   Overcast
8:53 PM 52.0 °F 46.9 °F 83% 29.99 in 10.0 mi NNW 4.6 mph - N/A   Overcast
9:53 PM 51.1 °F 46.9 °F 86% 29.98 in 10.0 mi NNW 5.8 mph - N/A   Partly Cloudy
10:53 PM 50.0 °F 46.0 °F 86% 29.98 in 10.0 mi NNW 5.8 mph - N/A   Clear
11:53 PM 50.0 °F 46.0 °F 86% 29.99 in 10.0 mi NNW 5.8 mph - N/A   Mostly Cloudy